{"data":{"norad_id":46080,"epoch":"2026-05-25T01:07:13.446624Z","epoch_age_seconds":64831,"freshness":"FRESH","line1":"1 46080U 20055BF  26145.04668341  .00041282  00000+0  66044-3 0  9999","line2":"2 46080  53.0604  26.8370 0004284  54.9591 305.1820 15.52745526322036","mean_motion":15.52745526,"eccentricity":0.0004284,"inclination_deg":53.0604,"raan_deg":26.837,"arg_perigee_deg":54.9591,"mean_anomaly_deg":305.182,"bstar":0.00066044,"rev_number":32203,"period_min":92.738956634418,"perigee_km":405.80654809748,"apogee_km":411.62152206433,"semimajor_km":6786.8510350809,"source":"CELESTRAK","updated_at":"2026-05-25T13:38:16.465353Z"}}